www.pogodaiklimat.ru

Погода и климат >> Архив погоды >> Россия >> Кировская область >> Кирс


ПОГОДА в Кирсе

  • Прогноз погоды в Кирсе
  • Монитор погоды в Кирсе
  • Климат города

АРХИВ ПОГОДЫ в Кирсе

Время (UTC), дата Ветер
(напр.,м/с)
 
Видим.   Явления Облачность Т
(С)
Тd
(С)
f
(%)
Тe
(С)
Тes
(С)
Комфортность P
(гПа)
Po
(гПа)
Тmin
(С)
Tmax
(С)
R
(мм)
R24
(мм)
S
(см)
12 18.05 Ю 2-5
{7}
20 км {ливн. осадки} 10/6 300 м
[Cb cap Cs]
+19.8 +7.0 43 +21 +24 комфорт 1011.1 991.5
15 18.05 ЮВ 2-4
{6}
20 км {ливн. осадки} 10/8 300 м
[Cb cap As op]
+18.2 +7.3 49 +19 +19 1010.6 990.9 +21.0 0.0
18 18.05 В 1-3
{5}
20 км гроза, ливневой дождь 10/10 300 м
[Cb cap]
+16.4 +7.4 55 +17 +17 1010.1 990.3
21 18.05 ЮВ 3-6
{7}
10 км гроза, ливневой дождь 10/10 300 м
[Cb cap]
+12.4 +10.6 89 +11 +11 1009.8 989.7
00 19.05 Ю 3-5
{8}
20 км {гроза, ливн. осадки} 8/0
[Ac trans Cs]
+11.7 +6.2 69 +10 +10 1008.8 988.6
03 19.05 ЮВ 2-3
{6}
20 км 10/0
[Cs]
+13.5 +6.2 61 +13 +15 1006.9 987.0 +11.5 5
06 19.05 В 2-4
{6}
20 км в посл. час ливневой дождь 9/9 300 м
[Cb cap]
+14.5 +10.5 77 +14 +15 1006.4 986.6
09 19.05 ЮВ 3-6
{8}
20 км 10/5 300 м
[Cu Sc Ci fib]
+20.9 +13.6 63 +24 +28 комфорт 1004.5 985.1
12 19.05 Ю 4-9
{11}
20 км гроза, ливневой дождь 10/9 300 м
[Cb cap Ci fib]
+23.9 +11.8 47 +26 +26 жарко 1003.0 983.8
15 19.05 Ю 6-10
{13}
20 км гроза, ливневой дождь 10/10 300 м
[Cb cap]
+17.2 +13.8 80 +16 +16 1002.6 982.9 +24.7 9
18 19.05 Ю 4-8
{10}
20 км {гроза, ливн. осадки} 8/8 300 м
[Cb cap]
+17.1 +14.5 85 +17 +17 1001.7 982.1
21 19.05 Ю 1-3
{8}
20 км 8/8 300 м
[Cb cap]
+15.2 +12.6 84 +16 +16 1002.0 982.3
00 20.05 ЮЗ 1-3
{3}
20 км в посл. час ливневой дождь 10/10 300 м
[Cb cap]
+13.8 +12.5 92 +14 +14 1002.1 982.3
03 20.05 СЗ 3-5
{8}
20 км {ливн. осадки} 10/10 300 м
[Cb cap]
+12.2 +10.6 90 +11 +11 1003.8 983.8 +12.2 1
06 20.05 СЗ 3-6
{7}
11 км слабый ливневой дождь 10/10 300 м
[Cb cap]
+10.5 +8.2 86 +8 +8 1006.7 986.6 +10.5
09 20.05 СЗ 5-8
{10}
20 км {ливн. осадки} 10/10 300 м
[Cb cap]
+9.4 +5.9 79 +6 +6 1009.9 989.5
12 20.05 СЗ 4-7
{9}
20 км {ливн. осадки} 10/10 300 м
[Cb cap]
+8.2 +4.1 75 +5 +5 1012.5 992.1
15 20.05 СЗ 4-9
{10}
20 км 10/10 300 м
[Cb cap]
+6.8 +3.5 79 +3 +3 1016.0 995.4 +12.2 0.4
18 20.05 С 3-5
{9}
20 км 10/10 300 м
[Cb cap]
+5.8 +2.9 82 +3 +3 1018.5 997.7
21 20.05 СЗ 2-5
{7}
20 км 10/10 600 м
[Sc]
+3.6 +1.0 83 +1 +1 1020.5 999.5
00 21.05 С 1-1
{5}
20 км ясно +0.6 -1.1 88 -1 -1 1022.5 1001.3
03 21.05 штиль 0
{2}
20 км ясно +4.2 0.0 74 +3 +8 1024.3 1002.3 -0.3
06 21.05 СЗ 2-3
{4}
20 км 6/0
[Ci fib]
+10.7 +1.9 54 +10 +19 1025.0 1004.5
09 21.05 З 2-5
{5}
20 км 4/3 600 м
[Cu hum Ci fib]
+15.5 +1.1 38 +16 +25 1024.8 1004.6
12 21.05 З 2-4
{5}
20 км 8/6 300 м
[Cb cap Ci fib]
+16.5 +1.3 36 +17 +20 1024.6 1004.5
15 21.05 З 2-4
{6}
20 км 6/3 300 м
[Sc Ci fib]
+16.1 +2.7 41 +16 +17 1024.3 1004.1 +17.6
18 21.05 штиль 0
{5}
20 км 4/0
[Ci fib]
+12.5 +4.3 57 +12 +12 1024.7 1004.3
21 21.05 З 1-2
{3}
20 км 10/0
[Cs]
+10.1 +2.9 61 +10 +10 1025.2 1004.6
00 22.05 штиль 0
{3}
20 км 10/0
[Cs]
+7.7 +3.8 76 +7 +7 1025.1 1004.3
03 22.05 З 4-8
{8}
20 км 3/0
[Ci]
+14.9 +3.2 45 +14 +16 1024.5 1004.3 +7.4
06 22.05 З 4-8
{9}
20 км 3/0
[Ci fib]
+21.9 +4.6 32 +22 +29 комфорт 1023.5 1003.7
09 22.05 З 5-10
{13}
20 км 4/3 600 м
[Cu hum Ac trans]
+25.8 +3.6 24 +25 +29 комфорт 1022.8 1003.3
12 22.05 СЗ 5-10
{13}
20 км 6/6 1000 м
[Cu hum]
+26.5 +5.0 25 +26 +27 жарко 1022.4 1003.0
15 22.05 СЗ 3-6
{10}
20 км 4/4 300 м
[Sc]
+25.8 +5.6 27 +25 +26 комфорт 1022.4 1002.9 +27.2
18 22.05 В 1-2
{6}
20 км ясно +18.6 +8.8 53 +20 +20 1024.1 1004.1
21 22.05 штиль 0
{2}
20 км ясно +11.4 +6.5 72 +11 +11 1024.7 1004.2
00 23.05 штиль 0
{4}
20 км ясно +12.1 +4.6 60 +12 +12 1024.7 1004.3
03 23.05 Ю 3-6
{7}
20 км ясно +16.5 +5.3 47 +16 +19 1023.5 1003.4 +10.3
06 23.05 ЮЗ 4-6
{6}
20 км 10/0
[Cs]
+22.1 +6.7 37 +23 +29 комфорт 1021.7 1002.1
09 23.05 ЮЗ 5-8
{10}
15 км слабый дождь 10/0
[As trans]
+19.2 +5.9 42 +19 +22 1021.7 1001.8
12 23.05 ЮЗ 5-10
{11}
20 км {дождь} 4/0
[Ac trans Ci fib]
+23.5 +9.3 40 +24 +28 комфорт 1018.1 998.5
15 23.05 ЮЗ 5-10
{12}
20 км 10/3 300 м
[Sc Ci fib]
+23.4 +8.1 38 +25 +25 комфорт 1015.2 995.7 +24.3 0.0
18 23.05 ЮЗ 4-8
{12}
20 км гроза без осадков 10/9 300 м
[Cb cap Ci fib]
+18.8 +10.6 59 +19 +19 1014.1 994.3
21 23.05 З 2-5
{12}
20 км {гроза} 6/6 300 м
[Cb cap]
+17.2 +12.1 72 +18 +18 1013.2 993.3
00 24.05 З 2-3
{9}
20 км в посл. час гроза {ливн. осадки} 9/9 300 м
[Cb cap]
+13.5 +12.4 93 +13 +13 1013.1 993.0
03 24.05 СЗ 3-6
{6}
20 км 8/8 300 м
[Cb cap]
+15.7 +10.9 73 +15 +16 1013.3 993.4 +13.3 0.5
06 24.05 СЗ 4-6
{10}
20 км 10/8 300 м
[Cb cap]
+16.5 +8.8 60 +16 +17 1015.0 995.1
09 24.05 С 4-8
{9}
20 км 10/10 600 м
[Cb cap]
+12.9 +6.8 66 +11 +11 1018.1 997.8
12 24.05 С 3-7
{8}
20 км 8/8 1000 м
[Cu med, cong]
+13.6 +1.7 44 +13 +14 1019.2 998.9
15 24.05 СВ 2-4
{8}
20 км 10/4 600 м
[Cu hum Ac cast Ci fib]
+12.3 -1.9 37 +12 +12 1019.3 998.9 +16.6
18 24.05 С 1-3
{7}
20 км 8/5 300 м
[Sc Ac trans]
+8.8 -1.7 48 +9 +9 1020.3 999.7
21 24.05 штиль 0
{5}
20 км 9/9 1000 м
[Sc]
+7.0 -0.9 57 +7 +7 1020.5 999.8
00 25.05 СЗ 2-3
{4}
20 км 10/0
[Ac As]
+5.2 -0.7 66 +3 +3 1020.8 999.9
03 25.05 С 2-4
{5}
20 км 10/0
[Ac As]
+5.7 -0.7 63 +4 +5 1021.0 1000.1 +5.2
06 25.05 СЗ 3-7
{7}
20 км {ливн. осадки} 9/9 300 м
[Cb cap]
+8.0 -1.4 51 +6 +7 1020.9 1000.2
09 25.05 С 3-5
{10}
20 км {ливн. осадки} 8/6 300 м
[Cb cap Ac trans]
+9.0 -2.7 44 +7 +10 1021.1 1000.5

 

Местоположение метеостанции Кирс (Кировская область, Россия): широта 59.35 долгота 52.25 высота над уровнем моря 169 м.

В архиве по умолчанию представлена погода в Кирсе за последнюю неделю. Архивные данные за месяц целиком и за предыдущие месяцы, начиная с января 2011 года, Вы можете получить, выбрав интересующий диапазон дат из раскрывающегося списка и нажав кнопку "Ввод!".


*Определитесь, кто Вы:
робот инопланетянин человек

Внимание! Время в таблицах - всемирное. Для получения местного времени необходимо прибавить поправку, которая в Кирсе равна 3 ч.

Смотрите также архив погоды в соседних городах и на ближайших метеорологических станциях:

Погода в Нагорске (Кировская область, Россия) (81 км)
Погода в Белой Холунице (Кировская область, Россия) (99 км)
Погода в Фаленках (Кировская область, Россия) (118 км)
Погода в Усть-Черной (Пермский край, Россия) (126 км)
Погода в Кочево (Пермский край, Россия) (128 км)
Погода в Глазове (Удмуртия, Россия) (137 км)
Погода в Кудымкаре (Пермский край, Россия) (142 км)
Погода в Койгородке (Коми, Россия) (142 км)
Погода в Гайнах (Пермский край, Россия) (156 км)
Погода в Косе (Пермский край, Россия) (168 км)

Пояснения к столбцам:

Ветер - указаны скорость ветра в м/с - средняя за 10 мин, порывы в срок и между сроками (в фигурных скобках) и направление, откуда дует ветер: С - северный, СВ - северо-восточный, В - восточный, ЮВ - юго-восточный, Ю - южный, ЮЗ - юго-западный, З - западный, СЗ - северо-западный.
Видимость - горизонтальная дальность видимости в метрах или километрах. При видимости от 1 до 10 км при отсутствии осадков обычно наблюдается дымка, при ухудшении видимости до 1 км и менее - туман. В сухую погоду видимость может ухудшаться дымом, пылью или мглою.
Явления - указаны атмосферные явления, наблюдавшиеся в срок или в последний час перед сроком; фигурными скобками обозначены явления, наблюдавшиеся между сроками (за 1-3 часа до срока); квадратными скобками обозначены град или гололедные отложения с указанием их диаметра в мм.
Облачность - указаны через наклонную черту общая и нижняя облачность в баллах и высота нижней границы облаков в метрах; квадратными скобками обозначены формы облаков: Ci - перистые, Cs - перисто-слоистые, Cc - перисто-кучевые, Ac - высококучевые, As - высокослоистые, Sc - слоисто-кучевые, Ns - слоисто-дождевые, Cu - кучевые, Cb - кучево-дождевые. Подробнее классификацию облаков см. в Атласе облаков (PDF).
T - Температура воздуха - температура, измеренная на высоте 2 м над землей.
Td - Температура точки росы - температура, при понижении до которой содержащийся в воздухе водяной пар достигнет насыщения.
f - Относительная влажность воздуха - влажноcть воздуха, измеренная на высоте 2 м над землей.
Te - Эффективная температура - температура, которую ощущает одетый по сезону человек в тени. Характеристика душности погоды. При расчете учитывается влияние влажности воздуха и скорости ветра на теплоощущения человека.
Tes - Эффективная температура на солнце - температура, которую ощущает человек, с поправкой на солнечный нагрев. Характеристика знойности погоды. Зависит от высоты солнца над горизонтом, облачности и скорости ветра. Ночью, в пасмурную погоду, а также при ветре 12 м/с и более поправка равна нулю.
P - Атмосферное давление - приведенное к уровню моря атмосферное давление.
Po - Атмосферное давление - измеренное на уровне метеостанции атмосферное давление.
Tmin - Минимальная температура - минимум температуры воздуха на высоте 2 м над землей.
Tmax - Максимальная температура - максимум температуры воздуха на высоте 2 м над землей.
R - Количество осадков - Количество выпавших осадков за период времени, мм. При наведении курсора мыши на число - период времени, за который выпало указанное количество осадков.
R24 - Количество осадков - Количество выпавших осадков за 24 часа, мм.
S - Снежный покров - Высота снежного покрова, см. При наведении курсора мыши на число - состояние снежного покрова и степень покрытия местности в баллах.